Time,TemperatureF,DewpointF,PressureIn,WindDirection,WindDirectionDegrees,WindSpeedMPH,WindSpeedGustMPH,Humidity,HourlyPrecipIn,Conditions,Clouds,dailyrainin,SoftwareType,DateUTC
2013-01-16 00:14:00,46.2,45.0,29.93,East,85,0.0,-999.0,97,-99.99,,,0.74,weatherlink.com 1.10,2013-01-16 06:14:00,
2013-01-16 00:29:00,46.3,46.0,29.93,East,85,1.0,-999.0,97,-99.99,,,0.74,weatherlink.com 1.10,2013-01-16 06:29:00,
2013-01-16 00:44:00,46.3,46.0,29.93,East,85,0.0,-999.0,97,-99.99,,,0.74,weatherlink.com 1.10,2013-01-16 06:44:00,
2013-01-16 00:59:00,46.4,46.0,29.93,East,85,0.0,-999.0,97,-99.99,,,0.74,weatherlink.com 1.10,2013-01-16 06:59:00,
2013-01-16 01:14:00,46.4,46.0,29.96,West,281,0.0,-999.0,97,-99.99,,,0.00,weatherlink.com 1.10,2013-01-16 07:14:00,
2013-01-16 01:29:00,46.4,46.0,29.96,West,278,0.0,-999.0,97,-99.99,,,0.02,weatherlink.com 1.10,2013-01-16 07:29:00,
2013-01-16 01:44:00,46.4,46.0,29.97,West,278,0.0,-999.0,97,-99.99,,,0.06,weatherlink.com 1.10,2013-01-16 07:44:00,
2013-01-16 01:59:00,46.5,46.0,29.95,ESE,123,2.0,-999.0,97,-99.99,,,0.06,weatherlink.com 1.10,2013-01-16 07:59:00,
2013-01-16 02:14:00,46.7,46.0,29.96,ESE,123,0.0,-999.0,97,-99.99,,,0.06,weatherlink.com 1.10,2013-01-16 08:14:00,
2013-01-16 02:29:00,47.0,46.0,29.95,ESE,123,0.0,-999.0,97,-99.99,,,0.06,weatherlink.com 1.10,2013-01-16 08:29:00,
2013-01-16 02:44:00,47.1,46.0,29.93,ESE,123,0.0,-999.0,97,-99.99,,,0.06,weatherlink.com 1.10,2013-01-16 08:44:00,
2013-01-16 02:59:00,47.1,46.0,29.94,ESE,123,0.0,-999.0,97,-99.99,,,0.06,weatherlink.com 1.10,2013-01-16 08:59:00,
2013-01-16 03:14:00,47.2,46.0,29.95,ESE,123,0.0,-999.0,97,-99.99,,,0.06,weatherlink.com 1.10,2013-01-16 09:14:00,
2013-01-16 03:29:00,47.3,47.0,29.96,ESE,123,0.0,-999.0,97,-99.99,,,0.06,weatherlink.com 1.10,2013-01-16 09:29:00,
2013-01-16 03:44:00,47.2,46.0,29.96,NW,323,0.0,-999.0,97,-99.99,,,0.06,weatherlink.com 1.10,2013-01-16 09:44:00,
2013-01-16 03:59:00,46.5,46.0,29.97,NNW,339,1.0,-999.0,97,-99.99,,,0.06,weatherlink.com 1.10,2013-01-16 09:59:00,
2013-01-16 04:14:00,45.7,45.0,29.96,NNW,344,1.0,-999.0,97,-99.99,,,0.06,weatherlink.com 1.10,2013-01-16 10:14:00,
2013-01-16 04:29:00,45.0,44.0,29.97,North,355,0.0,-999.0,97,-99.99,,,0.06,weatherlink.com 1.10,2013-01-16 10:29:00,
2013-01-16 04:44:00,44.5,44.0,29.98,NNW,344,1.0,-999.0,97,-99.99,,,0.06,weatherlink.com 1.10,2013-01-16 10:44:00,
2013-01-16 04:59:00,43.8,43.0,29.98,North,355,2.0,-999.0,96,-99.99,,,0.06,weatherlink.com 1.10,2013-01-16 10:59:00,
2013-01-16 05:14:00,43.4,42.0,29.98,WNW,295,0.0,-999.0,96,-99.99,,,0.06,weatherlink.com 1.10,2013-01-16 11:14:00,
2013-01-16 05:29:00,43.3,42.0,30.00,North,360,1.0,-999.0,96,-99.99,,,0.06,weatherlink.com 1.10,2013-01-16 11:29:00,
2013-01-16 05:44:00,43.0,42.0,29.99,NW,320,0.0,-999.0,96,-99.99,,,0.06,weatherlink.com 1.10,2013-01-16 11:44:00,
2013-01-16 05:59:00,42.8,42.0,30.00,NNW,345,0.0,-999.0,96,-99.99,,,0.06,weatherlink.com 1.10,2013-01-16 11:59:00,
2013-01-16 06:14:00,42.6,42.0,30.00,NNE,13,0.0,-999.0,96,-99.99,,,0.06,weatherlink.com 1.10,2013-01-16 12:14:00,
2013-01-16 06:29:00,42.4,41.0,30.01,North,360,2.0,-999.0,96,-99.99,,,0.06,weatherlink.com 1.10,2013-01-16 12:29:00,
2013-01-16 06:44:00,42.4,41.0,30.00,North,360,0.0,-999.0,96,-99.99,,,0.06,weatherlink.com 1.10,2013-01-16 12:44:00,
2013-01-16 06:59:00,42.3,41.0,29.99,North,360,0.0,-999.0,96,-99.99,,,0.06,weatherlink.com 1.10,2013-01-16 12:59:00,
2013-01-16 07:14:00,42.4,41.0,30.00,North,360,0.0,-999.0,96,-99.99,,,0.06,weatherlink.com 1.10,2013-01-16 13:14:00,
2013-01-16 07:29:00,42.5,42.0,30.02,North,360,1.0,-999.0,96,-99.99,,,0.06,weatherlink.com 1.10,2013-01-16 13:29:00,
2013-01-16 07:44:00,42.7,42.0,30.03,SW,227,0.0,-999.0,96,-99.99,,,0.06,weatherlink.com 1.10,2013-01-16 13:44:00,
2013-01-16 07:59:00,42.6,42.0,30.03,SW,227,0.0,-999.0,96,-99.99,,,0.06,weatherlink.com 1.10,2013-01-16 13:59:00,
2013-01-16 08:14:00,42.6,42.0,30.02,SW,227,0.0,-999.0,96,-99.99,,,0.06,weatherlink.com 1.10,2013-01-16 14:14:00,
2013-01-16 08:29:00,42.8,42.0,30.02,SW,227,0.0,-999.0,97,-99.99,,,0.06,weatherlink.com 1.10,2013-01-16 14:29:00,
2013-01-16 08:45:00,42.8,42.0,30.05,South,184,1.0,-999.0,96,-99.99,,,0.07,weatherlink.com 1.10,2013-01-16 14:45:00,
2013-01-16 09:00:00,42.8,42.0,30.05,East,92,0.0,-999.0,96,-99.99,,,0.08,weatherlink.com 1.10,2013-01-16 15:00:00,
2013-01-16 09:15:00,43.1,42.0,30.05,ENE,67,1.0,-999.0,97,-99.99,,,0.08,weatherlink.com 1.10,2013-01-16 15:15:00,
2013-01-16 09:30:00,43.2,42.0,30.06,ENE,67,0.0,-999.0,96,-99.99,,,0.08,weatherlink.com 1.10,2013-01-16 15:30:00,
2013-01-16 09:45:00,43.2,42.0,30.06,ENE,67,0.0,-999.0,96,-99.99,,,0.08,weatherlink.com 1.10,2013-01-16 15:45:00,
2013-01-16 10:00:00,42.8,42.0,30.06,NW,316,0.0,-999.0,96,-99.99,,,0.08,weatherlink.com 1.10,2013-01-16 16:00:00,
2013-01-16 10:15:00,42.7,41.0,30.06,NE,36,0.0,-999.0,95,-99.99,,,0.08,weatherlink.com 1.10,2013-01-16 16:15:00,
2013-01-16 10:30:00,42.6,41.0,30.07,North,355,0.0,-999.0,95,-99.99,,,0.09,weatherlink.com 1.10,2013-01-16 16:30:00,
2013-01-16 10:45:00,42.4,41.0,30.06,NNW,333,1.0,-999.0,95,-99.99,,,0.09,weatherlink.com 1.10,2013-01-16 16:45:00,
2013-01-16 11:00:00,42.5,41.0,30.05,North,360,0.0,-999.0,95,-99.99,,,0.09,weatherlink.com 1.10,2013-01-16 17:00:00,
2013-01-16 11:15:00,42.5,42.0,30.06,North,355,0.0,-999.0,96,-99.99,,,0.10,weatherlink.com 1.10,2013-01-16 17:15:00,
2013-01-16 11:30:00,42.6,42.0,30.06,North,355,0.0,-999.0,96,-99.99,,,0.10,weatherlink.com 1.10,2013-01-16 17:30:00,
2013-01-16 11:45:00,42.8,42.0,30.05,North,349,0.0,-999.0,96,-99.99,,,0.10,weatherlink.com 1.10,2013-01-16 17:45:00,
2013-01-16 12:00:00,43.0,42.0,30.03,NNE,22,2.0,-999.0,96,-99.99,,,0.11,weatherlink.com 1.10,2013-01-16 18:00:00,
2013-01-16 12:15:00,43.1,42.0,30.02,NNE,24,0.0,-999.0,96,-99.99,,,0.12,weatherlink.com 1.10,2013-01-16 18:15:00,
2013-01-16 12:30:00,43.3,42.0,30.01,NNE,31,0.0,-999.0,96,-99.99,,,0.12,weatherlink.com 1.10,2013-01-16 18:30:00,
2013-01-16 12:45:00,43.6,43.0,30.00,NNE,31,2.0,-999.0,96,-99.99,,,0.12,weatherlink.com 1.10,2013-01-16 18:45:00,
2013-01-16 13:00:00,44.0,43.0,29.99,NE,56,2.0,-999.0,96,-99.99,,,0.12,weatherlink.com 1.10,2013-01-16 19:00:00,
2013-01-16 13:15:00,44.3,43.0,29.98,ENE,69,4.0,-999.0,96,-99.99,,,0.12,weatherlink.com 1.10,2013-01-16 19:15:00,
2013-01-16 13:30:00,44.8,44.0,29.98,NE,44,0.0,-999.0,96,-99.99,,,0.12,weatherlink.com 1.10,2013-01-16 19:30:00,
2013-01-16 13:45:00,45.0,44.0,29.99,NNE,32,0.0,-999.0,96,-99.99,,,0.12,weatherlink.com 1.10,2013-01-16 19:45:00,
2013-01-16 14:00:00,45.2,44.0,30.00,NNE,32,0.0,-999.0,96,-99.99,,,0.12,weatherlink.com 1.10,2013-01-16 20:00:00,
2013-01-16 14:15:00,45.2,44.0,30.02,WSW,257,2.0,-999.0,96,-99.99,,,0.12,weatherlink.com 1.10,2013-01-16 20:15:00,
2013-01-16 14:30:00,44.8,44.0,30.02,NNW,336,1.0,-999.0,96,-99.99,,,0.13,weatherlink.com 1.10,2013-01-16 20:30:00,
2013-01-16 14:45:00,44.2,43.0,30.02,NW,306,2.0,-999.0,96,-99.99,,,0.14,weatherlink.com 1.10,2013-01-16 20:45:00,
2013-01-16 15:00:00,43.6,42.0,30.02,WNW,301,1.0,-999.0,95,-99.99,,,0.14,weatherlink.com 1.10,2013-01-16 21:00:00,
2013-01-16 15:15:00,43.3,42.0,30.03,NE,40,2.0,-999.0,95,-99.99,,,0.14,weatherlink.com 1.10,2013-01-16 21:15:00,
2013-01-16 15:30:00,42.9,42.0,30.03,WNW,296,0.0,-999.0,95,-99.99,,,0.14,weatherlink.com 1.10,2013-01-16 21:30:00,
2013-01-16 15:45:00,42.8,42.0,30.03,WNW,298,1.0,-999.0,95,-99.99,,,0.14,weatherlink.com 1.10,2013-01-16 21:45:00,
2013-01-16 16:00:00,42.7,41.0,30.03,NNW,346,2.0,-999.0,95,-99.99,,,0.14,weatherlink.com 1.10,2013-01-16 22:00:00,
2013-01-16 16:15:00,42.2,41.0,30.04,NNE,22,3.0,-999.0,95,-99.99,,,0.14,weatherlink.com 1.10,2013-01-16 22:15:00,
2013-01-16 16:30:00,41.9,41.0,30.02,NE,42,5.0,-999.0,95,-99.99,,,0.14,weatherlink.com 1.10,2013-01-16 22:30:00,
2013-01-16 16:45:00,41.7,40.0,30.03,NW,313,0.0,-999.0,95,-99.99,,,0.14,weatherlink.com 1.10,2013-01-16 22:45:00,
2013-01-16 17:00:00,41.5,40.0,30.04,NNW,346,0.0,-999.0,95,-99.99,,,0.14,weatherlink.com 1.10,2013-01-16 23:00:00,
2013-01-16 17:30:00,41.4,40.0,30.05,NE,54,0.0,-999.0,95,-99.99,,,0.14,weatherlink.com 1.10,2013-01-16 23:30:00,
2013-01-16 17:48:00,41.4,40.0,30.05,NE,52,3.0,-999.0,95,-99.99,,,0.14,weatherlink.com 1.10,2013-01-16 23:48:00,
2013-01-16 18:00:00,41.4,40.0,30.05,ENE,59,2.0,-999.0,95,-99.99,,,0.14,weatherlink.com 1.10,2013-01-17 00:00:00,
2013-01-16 18:15:00,41.3,40.0,30.05,ENE,59,1.0,-999.0,95,-99.99,,,0.14,weatherlink.com 1.10,2013-01-17 00:15:00,
2013-01-16 18:30:00,41.4,40.0,30.04,ENE,59,0.0,-999.0,95,-99.99,,,0.14,weatherlink.com 1.10,2013-01-17 00:30:00,
2013-01-16 18:45:00,41.4,40.0,30.03,ENE,59,2.0,-999.0,95,-99.99,,,0.14,weatherlink.com 1.10,2013-01-17 00:45:00,
2013-01-16 19:00:00,41.4,40.0,30.02,ENE,59,0.0,-999.0,95,-99.99,,,0.14,weatherlink.com 1.10,2013-01-17 01:00:00,
2013-01-16 19:15:00,41.4,40.0,30.03,ENE,59,0.0,-999.0,96,-99.99,,,0.14,weatherlink.com 1.10,2013-01-17 01:15:00,
2013-01-16 19:30:00,41.5,41.0,30.03,ENE,59,0.0,-999.0,96,-99.99,,,0.14,weatherlink.com 1.10,2013-01-17 01:30:00,
2013-01-16 20:00:00,41.7,41.0,30.04,ENE,59,0.0,-999.0,96,-99.99,,,0.14,weatherlink.com 1.10,2013-01-17 02:00:00,
2013-01-16 20:15:00,41.7,41.0,30.04,ENE,59,0.0,-999.0,96,-99.99,,,0.14,weatherlink.com 1.10,2013-01-17 02:15:00,
2013-01-16 20:30:00,41.7,41.0,30.03,ENE,59,0.0,-999.0,96,-99.99,,,0.14,weatherlink.com 1.10,2013-01-17 02:30:00,
2013-01-16 20:45:00,41.8,41.0,30.02,ENE,59,1.0,-999.0,96,-99.99,,,0.14,weatherlink.com 1.10,2013-01-17 02:45:00,
2013-01-16 21:00:00,41.9,41.0,30.02,NE,50,0.0,-999.0,96,-99.99,,,0.14,weatherlink.com 1.10,2013-01-17 03:00:00,
2013-01-16 21:15:00,42.0,41.0,30.02,NE,50,0.0,-999.0,96,-99.99,,,0.14,weatherlink.com 1.10,2013-01-17 03:15:00,
2013-01-16 21:30:00,42.2,41.0,30.04,WSW,250,0.0,-999.0,97,-99.99,,,0.14,weatherlink.com 1.10,2013-01-17 03:30:00,
2013-01-16 21:45:00,42.2,41.0,30.02,NNE,13,2.0,-999.0,97,-99.99,,,0.15,weatherlink.com 1.10,2013-01-17 03:45:00,
2013-01-16 22:00:00,42.2,41.0,30.01,East,85,1.0,-999.0,97,-99.99,,,0.16,weatherlink.com 1.10,2013-01-17 04:00:00,
2013-01-16 22:15:00,42.3,42.0,30.00,NE,54,3.0,-999.0,97,-99.99,,,0.16,weatherlink.com 1.10,2013-01-17 04:15:00,
2013-01-16 22:30:00,42.4,42.0,29.99,NNE,22,1.0,-999.0,97,-99.99,,,0.17,weatherlink.com 1.10,2013-01-17 04:30:00,
2013-01-16 22:45:00,42.5,42.0,29.99,NE,45,3.0,-999.0,96,-99.99,,,0.17,weatherlink.com 1.10,2013-01-17 04:45:00,
2013-01-16 23:15:00,42.7,42.0,29.99,NE,40,2.0,-999.0,97,-99.99,,,0.18,weatherlink.com 1.10,2013-01-17 05:15:00,
2013-01-16 23:30:00,42.7,42.0,29.99,NNE,33,1.0,-999.0,97,-99.99,,,0.19,weatherlink.com 1.10,2013-01-17 05:30:00,
2013-01-16 23:45:00,42.8,42.0,29.99,NE,45,2.0,-999.0,97,-99.99,,,0.20,weatherlink.com 1.10,2013-01-17 05:45:00,